AZU9010 SBKP-SBRF

Flight info

Callsign AZU9010
Flight time N/A
Altitude 41000
Route KONVI UZ23 ANBEX
Aircraft A333/H-SDE3GHIJ2J3J5M1RVWXY/LB2D1

Departure

Time 2026-05-01 14:43
Airport Viracopos International Airport (SBKP)

Arrival

Time N/A
Airport Recife/Guararapes - Gilberto Freyre International Airport (SBRF)
Time Latitude Longitude Altitude Speed Heading
2026-05-01 14:36 -23.00862 -47.15273 2183 ft 0 kts 39°
2026-05-01 14:37 -23.00862 -47.15272 2183 ft 0 kts 39°
2026-05-01 14:38 -23.00849 -47.15261 2183 ft 4 kts 38°
2026-05-01 14:38 -23.00809 -47.15233 2183 ft 8 kts 12°
2026-05-01 14:38 -23.00763 -47.15277 2183 ft 10 kts 307°
2026-05-01 14:38 -23.00716 -47.15343 2183 ft 12 kts 308°
2026-05-01 14:39 -23.00645 -47.15391 2182 ft 13 kts 25°
2026-05-01 14:39 -23.00566 -47.15322 2182 ft 15 kts 39°
2026-05-01 14:39 -23.00480 -47.15252 2182 ft 16 kts 37°
2026-05-01 14:39 -23.00387 -47.15174 2182 ft 17 kts 39°
2026-05-01 14:40 -23.00292 -47.15094 2182 ft 17 kts 37°
2026-05-01 14:40 -23.00188 -47.15010 2182 ft 18 kts 38°
2026-05-01 14:40 -23.00082 -47.14920 2182 ft 19 kts 38°
2026-05-01 14:40 -22.99984 -47.14812 2183 ft 20 kts 40°
2026-05-01 14:41 -22.99882 -47.14721 2183 ft 14 kts 39°
2026-05-01 14:41 -22.99893 -47.14634 2183 ft 14 kts 131°
2026-05-01 14:41 -22.99900 -47.14625 2183 ft 0 kts 130°
2026-05-01 14:42 -22.99907 -47.14616 2183 ft 12 kts 130°
2026-05-01 14:42 -23.00127 -47.14311 2183 ft 88 kts 127°
2026-05-01 14:42 -23.00647 -47.13584 2185 ft 153 kts 127°
2026-05-01 14:43 -23.01383 -47.12539 2445 ft 184 kts 128°
2026-05-01 14:43 -23.02114 -47.11409 3131 ft 188 kts 116°
2026-05-01 14:43 -23.02323 -47.10012 3913 ft 192 kts 79°
2026-05-01 14:43 -23.01829 -47.08708 4714 ft 192 kts 64°
2026-05-01 14:44 -23.01428 -47.07293 5617 ft 199 kts 79°
2026-05-01 14:44 -23.00934 -47.04559 6781 ft 192 kts 80°
2026-05-01 14:44 -23.00711 -47.03046 7053 ft 216 kts 81°
2026-05-01 14:45 -23.00102 -47.01529 7579 ft 225 kts 48°